Date String (YYYY-MM-DD hh:mm:ss) UTC,Instrument flags,Ambient pressure (hPa),Sample flow (lpm),Bypass flow (lpm),Sample temperature (°C),Ambient temperature (°C),ASC tube jacket temperature (°C),LED temperature (°C),Box temperature (°C),Sample RH (%),Span deviation,Mass concentration (μg/m³),Mass concentration (μg/m³),Mass concentration (μg/m³)
DateTimeUTC,F1_M11,P_M11,Q1_M11,Q2_M11,T1_M11,T2_M11,T3_M11,T4_M11,T5_M11,U1_M11,ZSPAN_M11,X0_M11,X2_M11,X1_M11
2022-12-08 19:00:00,,0825.4,5.01,0.00,22.0,20.7,00.0,30.8,23.7,08.0,0000.0,0005.45,0002.04,0001.83
2022-12-08 19:00:51,,0825.4,5.00,0.00,22.0,20.7,00.0,30.7,23.8,07.8,0000.0,0005.47,0002.04,0001.82
2022-12-08 19:01:00,,0825.4,4.99,0.00,22.0,20.7,00.0,30.7,23.8,07.9,0000.0,0005.33,0001.88,0001.65
2022-12-08 19:02:00,,0825.3,4.98,0.00,22.0,20.8,00.0,30.8,23.8,08.0,0000.0,0005.11,0001.65,0001.39
2022-12-08 19:03:00,,0825.2,5.02,0.00,22.0,20.8,00.0,30.8,23.8,07.9,0000.0,0004.99,0001.53,0001.25
2022-12-08 19:04:00,,0825.3,5.00,0.00,22.0,20.8,00.0,30.8,23.8,07.9,0000.0,0003.87,0001.35,0001.08
2022-12-08 19:05:00,,0825.2,4.95,0.00,22.0,20.8,00.0,30.8,23.8,07.9,0000.0,0002.81,0001.25,0000.98
2022-12-08 19:07:00,,0825.0,4.96,0.00,22.0,20.8,00.0,30.8,23.8,07.7,0000.0,0002.23,0001.19,0000.89
2022-12-08 19:08:00,,0825.2,5.00,0.00,22.0,20.8,00.0,30.8,23.8,07.8,0000.0,0002.06,0001.20,0000.89
2022-12-08 19:09:00,,0825.2,5.01,0.00,22.0,20.8,00.0,30.8,23.8,07.8,0000.0,0001.98,0001.20,0000.90
2022-12-08 19:10:00,,0825.3,5.01,0.00,22.0,20.8,00.0,30.8,23.8,07.8,0000.0,0002.04,0001.19,0000.85
2022-12-08 19:11:00,,0825.3,5.01,0.00,22.0,20.8,00.0,30.8,23.8,07.9,0000.0,0001.98,0001.13,0000.76
2022-12-08 19:12:00,,0825.2,5.01,0.00,22.0,20.8,00.0,30.8,23.8,07.8,0000.0,0001.89,0001.08,0000.73
2022-12-08 19:13:00,,0825.1,5.07,0.00,22.0,20.8,00.0,30.8,23.9,07.8,0000.0,0001.66,0000.96,0000.65
2022-12-08 19:14:00,,0825.2,4.99,0.00,22.0,20.8,00.0,30.8,23.8,07.6,0000.0,0001.65,0000.92,0000.62
2022-12-08 19:15:00,,0825.3,4.99,0.00,22.0,20.9,00.0,30.8,23.9,07.7,0000.0,0002.00,0000.98,0000.61
2022-12-08 19:16:00,,0825.2,5.00,0.00,22.0,20.9,00.0,30.8,23.9,07.8,0000.0,0002.04,0000.98,0000.58
2022-12-08 19:17:00,,0825.3,5.01,0.00,22.0,20.9,00.0,30.8,23.9,07.6,0000.0,0001.90,0000.94,0000.57
2022-12-08 19:18:00,,0825.2,5.01,0.00,22.0,20.8,00.0,30.8,23.9,07.6,0000.0,0001.82,0000.92,0000.57
2022-12-08 19:19:00,,0825.2,5.01,0.00,22.1,20.8,00.0,30.8,23.9,07.8,0000.0,0001.82,0000.89,0000.55
2022-12-08 19:20:00,,0825.3,5.01,0.00,22.1,20.8,00.0,30.8,23.9,07.7,0000.0,0002.39,0000.94,0000.53
2022-12-08 19:21:00,,0825.2,4.99,0.00,22.1,20.8,00.0,30.8,23.9,07.7,0000.0,0002.48,0000.93,0000.52
2022-12-08 19:22:00,,0825.3,4.99,0.00,22.1,20.8,00.0,30.8,23.8,07.7,0000.0,0002.44,0000.88,0000.51
2022-12-08 19:23:00,,0825.3,5.00,0.00,22.0,20.8,00.0,30.8,23.8,07.7,0000.0,0002.74,0000.90,0000.51
2022-12-08 19:24:00,,0825.3,5.01,0.00,22.0,20.7,00.0,30.8,23.8,07.8,0000.0,0002.87,0000.91,0000.51
2022-12-08 19:25:00,,0825.2,5.01,0.00,22.0,20.7,00.0,30.8,23.8,07.6,0000.0,0002.97,0000.94,0000.50
2022-12-08 19:26:00,,0825.2,5.01,0.00,22.0,20.7,00.0,30.8,23.8,07.5,0000.0,0002.78,0000.91,0000.50
2022-12-08 19:27:00,,0825.2,4.99,0.00,22.0,20.7,00.0,30.8,23.8,07.7,0000.0,0003.07,0000.94,0000.50
2022-12-08 19:28:00,,0825.3,4.99,0.00,22.0,20.7,00.0,30.8,23.8,07.6,0000.0,0003.23,0000.99,0000.50
2022-12-08 19:29:00,,0825.3,4.99,0.00,22.0,20.6,00.0,30.8,23.7,07.8,0000.0,0003.36,0001.02,0000.50
2022-12-08 19:30:00,,0825.4,4.99,0.00,22.0,20.6,00.0,30.8,23.7,07.8,0000.0,0003.42,0001.05,0000.52
2022-12-08 19:31:00,,0825.4,5.00,0.00,22.0,20.6,00.0,30.8,23.7,07.9,0000.0,0002.84,0000.98,0000.54
2022-12-08 19:32:00,,0825.3,5.00,0.00,22.0,20.6,00.0,30.8,23.7,07.9,0000.0,0002.80,0001.01,0000.56
2022-12-08 19:33:00,,0825.4,5.01,0.00,22.0,20.5,00.0,30.8,23.7,07.8,0000.0,0002.92,0001.04,0000.57
2022-12-08 19:34:00,,0825.2,5.00,0.00,21.9,20.5,00.0,30.8,23.7,07.9,0000.0,0003.44,0001.01,0000.58
2022-12-08 19:35:00,,0825.3,4.99,0.00,21.9,20.5,00.0,30.8,23.7,07.8,0000.0,0003.93,0001.00,0000.59
2022-12-08 19:36:00,,0825.4,4.99,0.00,21.9,20.5,00.0,30.8,23.7,07.8,0000.0,0003.88,0001.00,0000.60
2022-12-08 19:37:00,,0825.4,4.99,0.00,21.9,20.5,00.0,30.8,23.7,07.7,0000.0,0003.76,0000.98,0000.60
2022-12-08 19:38:00,,0825.4,5.00,0.00,21.9,20.4,00.0,30.8,23.6,07.9,0000.0,0003.36,0000.92,0000.60
2022-12-08 19:39:00,,0825.3,5.00,0.00,21.9,20.4,00.0,30.7,23.6,08.0,0000.0,0003.17,0000.86,0000.60
2022-12-08 19:40:00,,0825.4,5.01,0.00,21.9,20.4,00.0,30.7,23.6,07.8,0000.0,0003.03,0000.83,0000.59
2022-12-08 19:41:00,,0825.3,5.00,0.00,21.9,20.4,00.0,30.7,23.6,07.9,0000.0,0002.97,0000.80,0000.57
2022-12-08 19:42:00,,0825.3,5.00,0.00,21.9,20.4,00.0,30.7,23.6,07.9,0000.0,0002.93,0000.77,0000.55
2022-12-08 19:43:00,,0825.4,4.98,0.00,21.9,20.4,00.0,30.7,23.6,07.8,0000.0,0002.80,0000.75,0000.54
2022-12-08 19:44:00,,0825.4,4.99,0.00,21.8,20.4,00.0,30.7,23.6,07.6,0000.0,0002.67,0000.74,0000.54
2022-12-08 19:45:00,,0825.4,5.00,0.00,21.8,20.4,00.0,30.7,23.6,07.6,0000.0,0001.79,0000.75,0000.56
2022-12-08 19:46:00,,0825.4,5.01,0.00,21.8,20.4,00.0,30.7,23.6,07.8,0000.0,0001.19,0000.76,0000.58
2022-12-08 19:47:00,,0825.3,5.01,0.00,21.8,20.4,00.0,30.7,23.5,07.7,0000.0,0001.26,0000.80,0000.59
2022-12-08 19:48:00,,0825.3,5.01,0.00,21.8,20.4,00.0,30.7,23.5,07.9,0000.0,0001.31,0000.81,0000.59
2022-12-08 19:49:00,,0825.4,4.99,0.00,21.8,20.3,00.0,30.7,23.5,07.8,0000.0,0001.41,0000.85,0000.59
2022-12-08 19:50:00,,0825.4,4.99,0.00,21.8,20.3,00.0,30.6,23.5,07.7,0000.0,0001.46,0000.88,0000.60
2022-12-08 19:51:00,,0825.3,4.99,0.00,21.8,20.3,00.0,30.6,23.5,07.8,0000.0,0001.51,0000.90,0000.62
2022-12-08 19:52:00,,0825.2,5.00,0.00,21.8,20.3,00.0,30.6,23.5,07.9,0000.0,0001.50,0000.92,0000.63
2022-12-08 19:53:00,,0825.2,5.01,0.00,21.7,20.3,00.0,30.6,23.5,07.9,0000.0,0001.54,0000.93,0000.63
2022-12-08 19:54:00,,0825.2,5.01,0.00,21.7,20.2,00.0,30.6,23.5,07.8,0000.0,0001.52,0000.92,0000.63
2022-12-08 19:55:00,,0825.1,5.01,0.00,21.7,20.2,00.0,30.6,23.4,07.6,0000.0,0001.44,0000.88,0000.62
2022-12-08 19:56:00,,0825.2,5.00,0.00,21.7,20.2,00.0,30.6,23.4,07.7,0000.0,0001.41,0000.87,0000.61
2022-12-08 19:57:00,,0825.2,4.99,0.00,21.7,20.2,00.0,30.6,23.4,07.6,0000.0,0001.36,0000.83,0000.59
2022-12-08 19:58:00,,0825.3,4.99,0.00,21.7,20.2,00.0,30.6,23.4,07.9,0000.0,0001.27,0000.79,0000.57
2022-12-08 19:59:00,,0825.3,4.99,0.00,21.7,20.2,00.0,30.6,23.4,07.8,0000.0,0001.22,0000.76,0000.56
